Tracking 18032 objects as of 27-March-2017
HD Live streaming from Space Station
objects crossing your sky now

USA 67

Track USA 67 now!
USA 67 is classified as:


NORAD ID: 20963
Int'l Code: 1990-097B
Perigee: 36,194.0 km
Apogee: 36,355.8 km
Inclination: 16.7 °
Period: 1,460.7 minutes
Semi major axis: 42645 km
RCS: Unknown
Launch date: November 15, 1990
Source: United States (US)
Launch site: AIR FORCE EASTERN TEST RANGE (AFETR)

$1 billion satellite; resolution of 5-6 inches.
Your satellite tracking list
Your tracking list is empty





NASA's NSSDC Master Catalog

Two Line Element Set (TLE):
1 20963U 90097B   16345.74955787 0.00000000  00000-0  00000-0 0    09
2 20963  16.6555   6.2060 0018974 198.6915 161.2508  0.98579602    01
Source of the keplerian elements: McCants